Location: Москва
(55.7518°N, 37.5952°E)
Time: 05:52:50
(UTC+03:00)

ISS - Pass Details

Date: 30 January 2021
Orbit: 417 x 422 km, 51.6° (Epoch: 18 May)

Event Time Altitude Azimuth Distance (km) Brightness Sun altitude
Rises 17:26:11 0° 251° (WSW) 2,369 2.7 -4.1°
Reaches altitude 10° 17:28:21 10° 244° (WSW) 1,507 1.1 -4.4°
Maximum altitude 17:31:32 39° 174° (S) 644 -2.6 -4.8°
Drops below altitude 10° 17:34:44 10° 103° (ESE) 1,512 -1.4 -5.2°
Enters shadow 17:36:06 - 98° (E) 2,051 -0.8 -5.4°
